Location: Huisseau
(47.5933°N, 1.4533°E)
Time: 18:40:27
(UTC+00:00)

CENTAUR R/B - Pass Details

Date: 20 November 2025
Orbit: 633 x 1547 km, 63.4° (Epoch: 06 December)

Event Time Altitude Azimuth Distance (km) Brightness Sun altitude
Exits shadow 05:04:26 26° 304° (WNW) 2,439 4.0 -20.3°
Maximum altitude 05:09:21 54° 240° (WSW) 1,744 3.5 -19.5°
Drops below altitude 10° 05:18:24 10° 167° (SSE) 3,718 5.8 -18.0°
Sets 05:21:33 0° 163° (SSE) 4,697 6.4 -17.5°
